DW8209 Gubbio IT current weather conditions

sailwx.info

Wind from 136 at 1 knots gusting 5

Air temperature 28.3° C
Dewpoint 19.3° C

Last reported at 2017-Jun-26 11:03 UTC.
Time now 2017-Jun-26 12:11 UTC

Location: N 43°19' E 012°34'.
View on Google Maps.

See reports from other nearby stations

  
Tides and Currents Weather Stations Pressure Air Temp Water Temp Dewpoint Dewpoint Depression Visibility Wind Speed Wind Dir Waves Ship Positions
date/time (UTC)wind fromknots sea level pressurealtimeterstation pressurevisibilityair tempwater tempwave heightnotes
2017-Jun-26 11:03 136 1 gusting 5 28.3
2017-Jun-26 10:48 020 2 gusting 4 27.8
2017-Jun-26 10:33 052 1 gusting 4 27.8
2017-Jun-26 10:18 180 27.2
2017-Jun-26 10:03 290 2 gusting 6 27.2
2017-Jun-26 09:48 205 0 gusting 3 27.2
2017-Jun-26 09:33 134 27.2
2017-Jun-26 09:17 166 0 gusting 4 26.1
2017-Jun-26 09:02 242 2 gusting 4 25.6
2017-Jun-26 08:47 204 0 gusting 3 25.6
2017-Jun-26 08:32 091 23.3
2017-Jun-26 08:17 086 21.1
2017-Jun-26 08:02 070 21.7
2017-Jun-26 07:47 100 21.1
2017-Jun-26 07:32 096 20.6
2017-Jun-26 07:17 181 20.0
2017-Jun-26 07:02 193 19.4
2017-Jun-26 06:47 193 18.3
2017-Jun-26 06:32 207 17.8
2017-Jun-26 06:17 195 17.8
2017-Jun-26 06:02 270 17.2
2017-Jun-26 05:46 269 16.7
2017-Jun-26 05:31 249 16.1
2017-Jun-26 05:16 249 16.1
2017-Jun-26 05:01 226 16.1
2017-Jun-26 04:46 226 15.6
2017-Jun-26 04:31 327 15.6
2017-Jun-26 04:16 256 15.6
2017-Jun-26 04:01 290 15.0
2017-Jun-26 03:46 291 15.0
2017-Jun-26 03:31 288 15.6
2017-Jun-26 03:16 342 15.6
2017-Jun-26 03:01 341 15.0
2017-Jun-26 02:46 344 15.0
2017-Jun-26 02:31 344 15.6
2017-Jun-26 02:16 275 0 gusting 1 15.6
2017-Jun-26 02:01 292 16.1
2017-Jun-26 01:46 314 16.1
2017-Jun-26 01:31 309 0 gusting 0 16.1
2017-Jun-26 01:16 271 16.1
2017-Jun-26 01:01 271 16.1
2017-Jun-26 00:46 271 16.1
2017-Jun-26 00:31 271 16.1
2017-Jun-26 00:16 238 0 gusting 1 16.1
2017-Jun-26 00:01 018 0 gusting 1 16.1
2017-Jun-25 23:46 255 16.1
2017-Jun-25 23:31 255 16.7
2017-Jun-25 23:16 256 16.7
2017-Jun-25 23:01 257 17.2
2017-Jun-25 22:46 256 17.2
2017-Jun-25 22:31 256 17.2
2017-Jun-25 22:16 252 17.2
2017-Jun-25 22:01 266 17.2
2017-Jun-25 21:46 330 1 gusting 2 17.8
2017-Jun-25 21:31 229 17.8
2017-Jun-25 21:16 295 17.8
2017-Jun-25 21:00 321 17.8
2017-Jun-25 20:46 330 17.8
2017-Jun-25 20:30 077 17.8
2017-Jun-25 20:15 293 18.3
2017-Jun-25 20:00 304 18.3
2017-Jun-25 19:45 344 18.3
2017-Jun-25 19:30 031 1 gusting 2 18.3
2017-Jun-25 19:15 024 0 gusting 5 18.9
2017-Jun-25 19:00 095 1 gusting 3 18.9
2017-Jun-25 18:45 260 18.9
2017-Jun-25 18:30 127 0 gusting 2 18.9
2017-Jun-25 18:15 263 18.3
2017-Jun-25 18:00 100 17.8
2017-Jun-25 17:45 304 1 gusting 3 16.7
2017-Jun-25 17:31 034 1 gusting 6 16.7
2017-Jun-25 17:15 131 3 gusting 13 17.2
2017-Jun-25 17:00 321 8 gusting 22 17.8
2017-Jun-25 16:45 288 3 gusting 8 23.3
2017-Jun-25 16:30 029 10 gusting 13 25.0
2017-Jun-25 16:15 274 4 gusting 12 28.3
2017-Jun-25 16:00 208 10 gusting 16 28.9
2017-Jun-25 15:45 246 5 gusting 10 30.0
2017-Jun-25 15:30 184 3 gusting 12 29.4
2017-Jun-25 15:15 232 5 gusting 13 29.4
2017-Jun-25 15:00 190 4 gusting 10 30.0
2017-Jun-25 14:45 195 7 gusting 14 29.4
2017-Jun-25 14:30 208 6 gusting 15 30.6
2017-Jun-25 14:15 218 4 gusting 13 30.6
2017-Jun-25 14:00 221 6 gusting 14 30.6
2017-Jun-25 13:45 210 6 gusting 9 31.1
2017-Jun-25 13:30 255 8 gusting 13 30.6
2017-Jun-25 13:15 260 11 gusting 17 30.0
2017-Jun-25 13:00 190 6 gusting 13 30.6
2017-Jun-25 12:45 229 6 gusting 13 30.0
2017-Jun-25 12:30 242 6 gusting 12 29.4
2017-Jun-25 12:15 228 5 gusting 9 29.4
2017-Jun-25 12:00 210 2 gusting 10 29.4
2017-Jun-25 11:45 170 4 gusting 9 30.0
2017-Jun-25 11:30 174 3 gusting 9 29.4
2017-Jun-25 11:15 156 3 gusting 9 29.4
2017-Jun-25 11:00 249 4 gusting 8 28.9
2017-Jun-25 10:45 127 2 gusting 11 28.3
2017-Jun-25 10:31 175 2 gusting 10 28.3
2017-Jun-25 10:15 153 3 gusting 9 28.3
2017-Jun-25 10:00 188 2 gusting 6 27.8
2017-Jun-25 09:44 190 5 gusting 6 27.2
2017-Jun-25 09:29 138 3 gusting 9 26.7
2017-Jun-25 09:14 270 2 gusting 7 26.7
2017-Jun-25 08:59 207 3 gusting 9 26.1
2017-Jun-25 08:44 206 3 gusting 8 26.7
2017-Jun-25 08:29 162 2 gusting 8 26.1
2017-Jun-25 08:14 186 2 gusting 7 25.6
2017-Jun-25 07:59 173 3 gusting 6 25.0
2017-Jun-25 07:44 212 3 gusting 7 24.4
2017-Jun-25 07:29 143 1 gusting 7 23.9
2017-Jun-25 07:14 152 0 gusting 4 23.9
2017-Jun-25 06:59 191 0 gusting 6 23.3
2017-Jun-25 06:44 229 1 gusting 7 23.3
2017-Jun-25 06:29 208 22.8
2017-Jun-25 06:14 156 21.7
2017-Jun-25 05:59 142 1 gusting 2 20.6
2017-Jun-25 05:44 081 3 gusting 5 20.0
2017-Jun-25 05:28 124 2 gusting 5 19.4
2017-Jun-25 05:13 097 2 gusting 3 18.9
2017-Jun-25 04:58 219 17.8
2017-Jun-25 04:43 105 17.2
2017-Jun-25 04:28 280 0 gusting 2 16.7
2017-Jun-25 04:14 277 16.7
2017-Jun-25 03:58 276 16.1
2017-Jun-25 03:43 282 16.7
2017-Jun-25 03:28 282 0 gusting 1 16.7
2017-Jun-25 03:13 269 16.7
2017-Jun-25 02:58 269 0 gusting 1 17.2
2017-Jun-25 02:43 291 17.2
2017-Jun-25 02:28 291 17.8
2017-Jun-25 02:13 224 17.8
2017-Jun-25 01:58 224 18.3
2017-Jun-25 01:43 224 18.9
2017-Jun-25 01:28 257 18.9
2017-Jun-25 01:13 219 18.9
2017-Jun-25 00:58 219 20.0
2017-Jun-25 00:43 219 20.6
2017-Jun-25 00:28 127 21.7
2017-Jun-25 00:13 263 0 gusting 1 21.7
2017-Jun-24 23:58 278 22.8
2017-Jun-24 23:42 067 22.8
2017-Jun-24 23:28 063 1 gusting 4 22.8
2017-Jun-24 23:13 029 0 gusting 3 22.8
2017-Jun-24 22:57 207 1 gusting 3 22.2
2017-Jun-24 22:42 077 22.2
2017-Jun-24 22:27 284 22.2
2017-Jun-24 22:12 018 22.8
2017-Jun-24 21:57 105 0 gusting 2 23.3
2017-Jun-24 21:42 214 23.3
2017-Jun-24 21:27 211 25.0
2017-Jun-24 21:12 233 1 gusting 3 25.0
2017-Jun-24 20:57 217 1 gusting 3 26.1
2017-Jun-24 20:42 212 0 gusting 3 26.1
2017-Jun-24 20:27 211 1 gusting 3 26.1
2017-Jun-24 20:12 220 1 gusting 2 26.1
2017-Jun-24 19:57 228 1 gusting 4 26.7
2017-Jun-24 19:42 229 1 gusting 4 26.7
2017-Jun-24 19:27 210 2 gusting 3 26.7
2017-Jun-24 19:12 236 0 gusting 2 27.2
2017-Jun-24 18:57 217 0 gusting 1 27.8
2017-Jun-24 18:42 264 28.3
2017-Jun-24 18:27 255 29.4
2017-Jun-24 18:12 263 1 gusting 4 31.1
2017-Jun-24 17:57 257 31.1
2017-Jun-24 17:42 283 1 gusting 5 31.1
2017-Jun-24 17:27 281 0 gusting 4 31.7
2017-Jun-24 17:12 285 32.2
2017-Jun-24 16:57 260 0 gusting 6 31.7
2017-Jun-24 16:42 270 1 gusting 6 31.7
2017-Jun-24 16:27 269 1 gusting 5 32.2
2017-Jun-24 16:12 273 5 gusting 8 31.7
2017-Jun-24 15:57 319 3 gusting 6 31.7
2017-Jun-24 15:42 276 5 gusting 8 32.2
2017-Jun-24 15:27 225 3 gusting 13 32.2
2017-Jun-24 15:12 197 6 gusting 10 32.2
2017-Jun-24 14:57 264 3 gusting 7 32.2
2017-Jun-24 14:42 288 4 gusting 8 32.2
2017-Jun-24 14:27 222 2 gusting 9 31.7
2017-Jun-24 14:12 207 0 gusting 4 32.8
2017-Jun-24 13:57 257 3 gusting 11 32.2
2017-Jun-24 13:42 200 4 gusting 10 31.7
2017-Jun-24 13:27 151 1 gusting 7 31.1
2017-Jun-24 13:12 201 3 gusting 9 31.7
2017-Jun-24 12:57 282 1 gusting 8 31.7
2017-Jun-24 12:42 273 3 gusting 8 31.7
2017-Jun-24 12:27 157 1 gusting 5 31.7
2017-Jun-24 12:12 217 3 gusting 5 31.1